カタログに戻る

DELTA 1 DEB

運用中LEO
NORAD 21674·DEBRIS·🇺🇸 United States

打ち上げ Jun 12, 1975 から Vandenberg Space Force Base

Loading…

次のパス (今後24時間)

TLE

最新Source: Space-Track

元期: Sep 14, 2026, 04:58 UTC

1 21674U 75052JA  26257.20701557  .00003467  00000-0  75509-3 0  9997
2 21674 100.0533 167.4172 0096079 237.7499 121.4354 14.55996502823845

AllMySatでDELTA 1 DEBをリアルタイム追跡

Download on the App Store